Flag for U.S.A. Weather past 2 weeks in Winston-Salem, North Carolina, U.S.A.

Now
73 °F

Sunny.


Feels Like: 77 °F
Forecast: 56 / 73 °F
Wind: 5 mph from North

Location: Smith Reynolds Airport

Current Time: Sep 22, 2014 at 2:46:44 PM

Latest Report: Sep 22, 2014 at 1:54 PM


Visibility: 10 mi

Pressure: 30.05 "Hg

Humidity: 43%

Dew point: 49 °F

Location of Winston-SalemLocation

Historic Weather in Winston-Salem — Graph

°F

Winston-Salem temperature yesterday

Maximum temperature yesterday: 85 °F (at 3:54 PM)
Minimum temperature yesterday: 58 °F (at 4:54 AM)
Average temperature yesterday: 71 °F

Past Weeks' High & Low Weather Summary

 TemperatureHumidityPressure
High88 °F (Sep 11, 4:54 PM)94% (Sep 8, 4:54 AM)30.29 "Hg (Sep 8, 4:54 AM)
Low57 °F (Sep 22, 6:54 AM)42% (Sep 20, 1:54 PM)29.80 "Hg (Sep 21, 5:54 PM)
Average70 °F77%30.07 "Hg
* Reported Sep 7 12:54 PM — Sep 22 12:54 PM, Winston-Salem, Weather by CustomWeather, © 2014

Note: Actual official high and low records may vary slightly from our data, if they occured in-between our weather recording intervals... More about our weather records

Advertising

Winston-Salem weather history for previous 24 hours

 ConditionsComfort  
Time TempWeatherWind HumidityBarometerVisibility
12:54 PM
Sep 22
71 °FSunny.3 mph45%30.06 "Hg10 mi
11:54 AM69 °FSunny.3 mph51%30.07 "Hg10 mi
10:54 AM69 °FSunny.5 mph51%30.07 "Hg10 mi
9:54 AM67 °FSunny.9 mph53%30.06 "Hg10 mi
8:54 AM64 °FSunny.8 mph61%30.03 "Hg10 mi
7:54 AM60 °FClear.3 mph69%30.02 "Hg10 mi
6:54 AM57 °FClear.No wind81%30.00 "Hg10 mi
5:54 AM59 °FClear.5 mph75%29.96 "Hg10 mi
4:54 AM64 °FClear.No wind61%29.95 "Hg10 mi
3:54 AM65 °FClear.6 mph66%29.92 "Hg10 mi
2:54 AM68 °FClear.3 mph73%29.91 "Hg10 mi
1:54 AM70 °FPassing clouds.7 mph71%29.89 "Hg10 mi
12:54 AM72 °FOvercast.8 mph68%29.89 "Hg10 mi
11:54 PM
Sep 21
72 °FOvercast.7 mph73%29.88 "Hg10 mi
10:54 PM70 °FPassing clouds.No wind84%29.87 "Hg10 mi
9:54 PM71 °FPassing clouds.3 mph84%29.85 "Hg10 mi
8:54 PM72 °FPassing clouds.6 mph81%29.85 "Hg10 mi
7:54 PM78 °FOvercast.5 mph62%29.83 "Hg10 mi
6:54 PM78 °FScattered clouds.6 mph62%29.82 "Hg10 mi
5:54 PM82 °FScattered clouds.9 mph51%29.80 "Hg10 mi
4:54 PM84 °FScattered clouds.8 mph45%29.80 "Hg10 mi
3:54 PM85 °FPassing clouds.9 mph45%29.80 "Hg10 mi
2:54 PM84 °FPassing clouds.8 mph45%29.81 "Hg10 mi
Weather by CustomWeather, © 2014

See weather overviewHow to use our weather pages